GFSSW_sfc_dewp_000.txt.gz
Dewpoint
58 58 58 58 59 59 60 60 60 60 61 61 60 61 61 61 59 41 32 41 47 58 56 37 36 35 37 39 40 40 30 27 27 25 24 22 21 23 23 23 25 27 27 27 30
56 57 57 57 58 58 59 59 59 60 60 61 60 61 61 60 44 37 50 57 58 58 41 34 32 34 34 37 37 35 34 30 25 21 21 22 21 22 22 21 22 24 27 26 28
55 55 55 56 57 57 58 59 59 60 60 60 60 61 61 58 41 36 59 58 57 54 40 34 32 33 34 35 34 32 30 26 24 24 22 22 21 22 21 23 23 22 25 26 26
55 55 54 55 55 56 57 58 58 59 59 60 60 61 60 49 29 42 56 55 56 45 36 34 32 34 31 33 32 29 29 28 31 28 27 24 24 23 22 22 25 25 26 27 26
56 55 54 54 55 55 56 56 57 58 59 59 60 60 52 36 32 43 55 54 41 36 32 31 30 32 32 29 31 29 28 27 27 28 28 28 26 25 24 24 24 24 25 27 26
56 56 55 54 55 55 55 55 57 57 58 59 59 60 43 26 38 38 34 39 34 33 29 30 28 31 30 27 27 30 30 28 26 27 29 27 27 27 26 26 25 25 25 25 27
56 56 55 54 54 55 55 55 56 57 58 58 59 54 37 27 35 34 33 37 36 34 31 34 33 34 34 31 30 28 26 26 24 27 26 27 26 26 25 25 23 23 25 25 25
56 55 55 55 55 54 55 56 57 57 58 58 59 49 33 41 36 33 34 34 34 34 36 37 35 36 34 33 27 25 25 23 22 23 28 27 20 25 25 23 23 23 23 24 26
54 54 54 54 55 55 55 55 56 57 57 57 51 45 29 45 38 34 32 32 33 35 36 30 38 33 33 27 23 23 21 22 23 26 27 27 24 22 18 20 20 22 22 22 23
54 54 53 54 54 54 55 55 55 54 55 51 40 37 33 32 40 36 32 34 34 36 34 34 33 28 28 24 18 18 19 17 16 23 26 25 24 23 23 22 20 20 20 20 20
54 54 54 54 54 55 53 46 37 44 38 32 33 29 30 38 41 35 32 32 33 32 28 32 25 22 22 22 21 19 19 18 17 19 24 23 22 22 21 21 20 21 20 20 20
55 54 54 55 55 55 52 39 45 44 29 25 27 29 31 37 33 36 30 28 30 26 27 28 25 24 22 20 21 21 18 16 16 20 22 22 23 23 22 21 21 21 21 21 20
55 55 55 55 55 52 45 44 47 46 34 22 24 25 28 34 28 30 29 29 28 27 25 21 21 24 23 22 21 21 20 17 17 19 22 20 21 23 23 22 22 22 21 20 20
56 55 55 54 51 46 44 45 47 47 26 19 26 32 34 33 24 30 31 29 26 23 23 22 22 21 21 19 19 16 19 22 21 21 20 20 14 16 17 16 19 19 18 18 20
56 55 55 54 47 44 45 45 47 43 19 28 23 36 35 28 28 29 27 26 22 21 22 19 23 23 23 21 22 21 25 24 24 24 25 22 19 15 16 15 15 15 18 19 21
56 55 54 51 50 48 48 47 46 21 16 21 27 28 30 30 29 28 27 26 27 23 22 21 24 25 24 24 25 23 22 21 20 20 18 16 15 12 15 16 15 16 16 16 26
56 55 53 50 47 48 47 44 25 15 23 23 22 26 26 27 28 25 24 22 19 18 19 21 20 24 25 23 24 23 21 21 19 20 16 14 14 12 16 13 13 13 12 15 27
56 56 54 52 49 49 46 38 23 28 19 22 21 26 23 22 26 26 25 22 22 21 18 15 12 21 23 21 22 23 22 23 14 10 10 22 16 15 17 16 15 13 13 24 25
56 55 54 54 49 50 43 32 33 34 33 29 25 21 21 22 21 25 24 19 22 21 17 14 12 22 23 22 22 22 21 23 23 18 20 13 13 16 20 18 16 14 16 21 25
54 53 52 53 50 47 38 34 36 40 38 32 27 21 18 18 20 21 20 20 21 24 20 16 14 18 21 20 21 20 22 20 23 12 10 9 11 12 15 14 17 19 18 21 23
53 48 52 51 50 43 33 34 36 38 39 37 37 31 23 17 19 17 17 17 16 19 24 20 20 16 19 18 17 18 19 19 17 24 14 10 10 13 15 18 19 19 20 22 24
51 43 50 50 41 40 36 37 38 37 39 37 36 36 34 33 28 27 24 22 24 25 24 26 26 24 15 16 16 17 17 16 14 12 17 14 13 14 16 17 15 16 17 18 23
46 46 49 50 39 38 39 38 38 37 37 37 39 39 37 34 34 33 28 25 29 27 30 30 26 26 20 20 19 16 17 16 16 16 15 15 12 12 12 11 13 14 18 20 21
45 40 42 44 43 41 39 37 37 39 38 38 37 37 38 36 34 32 34 34 35 30 39 36 32 28 22 21 21 18 16 16 16 16 15 14 13 13 14 13 14 15 16 19 22
43 39 41 36 37 39 39 38 37 36 38 38 37 37 37 35 33 32 32 32 34 36 35 37 31 30 29 28 28 27 23 21 19 18 16 14 13 14 14 14 15 15 14 14 16
38 39 40 40 39 39 38 36 36 36 36 36 36 36 35 34 34 32 34 34 34 34 34 37 32 32 30 30 28 26 24 24 24 23 20 19 18 17 15 15 16 15 16 17 19
40 41 37 32 34 35 34 34 36 38 39 39 39 36 35 36 36 36 36 36 35 35 35 34 32 30 27 30 30 27 30 29 28 27 24 21 22 21 19 18 19 19 20 21 23

GFSSW_sfc_dewp_003.txt.gz
Dewpoint
57 57 57 57 58 59 59 59 59 60 60 60 60 61 61 60 60 46 35 42 46 59 53 38 37 35 35 37 36 35 26 23 23 22 21 21 20 23 22 21 24 25 25 27 32
56 55 56 56 57 57 58 58 59 59 59 60 60 60 60 60 48 40 50 63 60 59 40 33 32 32 32 35 34 33 31 28 25 21 19 21 20 22 21 20 20 23 26 30 27
55 55 55 55 56 57 57 57 58 59 59 60 60 60 60 59 43 36 59 62 61 56 40 34 32 32 32 33 32 30 25 28 24 24 23 21 21 22 21 21 21 20 24 28 26
56 55 55 55 55 56 56 57 57 58 59 59 59 60 60 51 5 43 57 58 58 44 37 31 31 30 28 28 31 28 28 28 31 26 25 23 23 21 21 20 23 23 23 26 24
57 56 55 55 55 55 56 56 56 57 58 59 59 59 52 37 32 45 56 54 44 38 32 29 29 30 29 30 27 27 28 29 29 28 26 27 26 26 25 24 24 23 25 25 25
57 56 55 54 55 55 55 55 56 56 57 58 58 59 40 25 37 41 38 41 35 32 29 29 28 29 26 27 26 27 29 28 27 27 27 27 27 26 25 27 26 25 24 25 25
55 55 55 55 54 55 55 55 55 56 56 57 58 56 42 25 35 35 35 34 33 32 31 30 32 29 30 29 30 28 24 24 22 25 26 27 24 25 26 25 24 25 25 25 26
55 55 55 55 55 55 55 55 56 57 56 58 58 52 25 41 34 33 34 33 32 32 35 35 32 32 31 30 25 24 24 22 20 26 27 23 19 22 25 25 24 24 23 23 25
56 54 54 55 55 55 55 56 56 56 57 57 51 44 26 45 35 34 33 32 32 34 34 30 35 30 31 23 21 23 17 21 22 25 27 24 22 24 23 24 23 22 23 23 23
56 55 54 55 55 55 56 56 55 54 54 54 46 35 32 30 39 34 31 34 33 34 33 32 30 24 28 22 14 17 20 20 19 22 25 25 23 23 24 23 21 20 20 22 23
56 55 55 55 55 56 54 48 29 33 43 24 29 28 32 38 39 35 33 32 33 32 26 30 24 22 18 25 19 17 17 17 18 20 23 22 22 22 23 24 23 22 22 21 22
57 56 55 55 56 55 51 42 44 44 32 33 28 32 32 36 30 37 32 28 29 26 27 28 24 23 23 25 23 21 19 17 15 17 21 19 19 21 24 23 23 22 22 22 22
57 56 55 55 55 51 46 44 46 47 37 30 26 21 25 34 28 28 30 29 27 26 26 20 23 28 26 24 21 19 18 16 16 18 21 19 19 20 22 23 23 23 23 23 22
57 56 55 54 49 47 43 44 47 46 22 23 23 31 33 31 21 30 31 28 27 24 26 25 24 22 24 21 20 15 21 20 21 22 15 20 12 15 19 21 21 22 21 20 21
56 56 55 52 46 45 46 46 46 40 14 26 24 35 35 21 26 26 27 25 23 22 22 19 19 23 22 19 21 18 23 21 22 22 22 20 17 14 15 15 16 16 17 18 19
56 56 54 52 49 48 47 46 42 14 13 22 28 27 28 30 28 26 25 24 25 23 21 20 24 23 22 24 23 24 21 21 20 19 16 17 14 9 14 15 16 16 17 16 19
56 56 53 50 47 47 46 43 24 15 19 22 20 28 26 27 28 24 23 20 16 14 16 19 19 23 24 22 23 23 20 18 15 17 15 13 15 11 15 16 16 16 15 16 21
57 56 54 52 48 49 48 40 31 33 22 25 24 25 22 24 26 26 23 20 22 20 19 15 8 21 23 20 19 22 21 20 9 10 9 21 16 14 19 17 17 15 14 15 24
56 55 53 54 50 48 44 34 35 34 38 38 39 37 24 23 20 26 23 23 21 21 16 16 14 22 23 23 22 21 20 20 21 13 17 14 15 15 20 19 18 17 16 20 25
54 52 51 53 50 47 39 38 36 38 40 37 36 39 35 31 29 24 23 24 23 24 20 17 15 18 20 21 21 21 21 20 22 12 11 12 11 11 14 14 16 18 16 21 24
53 48 50 51 50 44 36 37 38 39 39 38 37 38 36 37 35 34 33 31 22 24 26 23 21 17 18 19 19 19 20 19 19 23 13 11 11 14 15 15 14 18 18 18 22
49 42 50 50 41 41 39 38 39 38 39 39 38 38 37 37 36 36 35 32 33 31 32 30 27 25 17 15 19 18 19 18 16 15 19 18 15 16 15 17 18 17 17 20 23
45 44 49 50 38 38 39 40 39 39 38 38 39 39 38 36 34 35 36 36 37 34 35 34 32 27 25 20 17 15 16 17 19 22 21 20 17 19 18 15 11 11 13 15 16
43 38 42 44 44 40 37 36 37 40 39 39 38 38 38 37 37 35 35 38 39 36 39 39 34 31 25 23 22 23 21 20 19 18 19 19 18 19 18 17 16 16 16 15 17
39 35 38 35 37 39 38 36 35 35 38 38 36 37 36 33 33 34 36 36 37 37 36 35 32 33 32 31 29 28 27 26 24 23 21 22 20 19 19 18 18 17 16 15 16
34 34 36 37 38 38 37 34 33 35 36 34 34 35 35 36 36 35 35 35 34 33 33 33 31 33 32 34 33 32 30 30 30 28 26 24 21 23 24 25 23 23 22 21 18
37 37 37 30 30 30 31 30 31 36 36 38 36 34 34 36 36 37 37 38 39 38 36 35 33 32 29 32 32 29 31 31 29 28 27 24 24 23 22 23 25 25 24 23 22

GFSSW_sfc_dewp_006.txt.gz
Dewpoint
56 56 57 57 57 58 58 58 59 59 59 60 60 60 60 60 59 46 34 38 46 60 54 39 39 37 35 36 36 35 22 22 21 23 20 21 20 22 22 21 24 25 24 26 32
56 56 56 56 56 57 57 58 58 58 59 59 60 60 60 60 48 39 49 62 62 61 38 32 32 33 31 35 35 32 27 22 24 26 20 21 20 20 20 20 20 23 26 31 31
56 56 56 56 56 56 57 57 57 57 58 59 59 59 60 59 39 33 60 63 61 59 37 34 32 32 32 33 32 32 26 28 26 24 23 21 20 21 21 20 21 20 22 29 29
56 56 55 55 55 56 56 56 57 57 57 58 59 59 59 51 6 37 59 61 61 43 35 30 29 30 29 27 31 28 29 26 30 29 25 23 23 21 22 20 23 23 23 29 27
57 56 55 55 55 56 56 56 56 56 57 57 58 59 50 34 29 47 58 57 48 40 30 29 29 29 27 29 29 29 29 28 29 29 28 26 25 23 24 24 24 24 25 27 28
56 56 56 55 55 55 55 55 56 56 56 56 57 58 39 18 32 44 41 44 38 32 29 29 28 29 28 28 26 26 28 28 28 27 27 26 25 26 24 26 26 26 25 25 27
56 55 55 56 55 55 55 55 55 56 56 56 57 56 43 20 36 38 37 35 34 32 29 30 29 29 26 27 29 27 24 24 23 24 23 27 24 25 24 25 24 24 25 26 25
56 56 55 55 56 56 56 56 56 56 56 57 58 51 23 38 35 34 34 33 32 31 33 34 32 30 30 28 23 23 26 20 18 25 25 22 19 21 25 25 24 24 24 24 26
56 56 55 55 55 56 56 56 56 56 56 57 51 40 24 44 34 34 33 31 32 33 32 31 32 27 30 24 19 22 15 19 20 25 26 23 22 24 24 24 23 22 22 23 24
57 56 56 56 56 56 56 56 54 53 55 55 47 33 31 29 38 34 32 33 32 33 30 32 30 25 27 22 16 17 19 19 16 20 25 24 23 23 23 21 21 20 20 20 21
57 56 56 56 56 56 54 47 30 26 40 22 28 25 30 36 38 33 32 31 33 29 24 29 24 21 19 24 19 15 16 17 16 16 23 23 22 23 23 22 23 23 23 22 22
57 57 56 56 56 56 48 45 44 44 34 34 33 33 33 36 28 35 32 28 30 25 27 27 24 23 22 22 24 22 19 17 17 20 21 19 17 18 21 21 20 21 22 23 23
57 56 56 55 55 49 44 43 46 46 37 30 30 24 25 33 29 29 30 29 26 25 26 19 20 28 23 22 22 21 20 19 18 19 20 19 17 19 20 21 21 24 24 24 23
57 56 55 54 49 46 42 45 46 45 20 22 23 27 32 30 19 29 30 27 28 24 25 24 25 24 26 24 22 18 21 21 20 20 14 18 12 13 16 18 20 22 22 23 23
56 56 55 53 47 45 45 47 46 36 18 23 25 34 34 20 24 25 27 26 24 22 24 16 20 23 22 21 24 20 20 19 21 21 21 21 19 20 17 16 16 16 18 18 18
56 56 55 51 48 47 47 46 40 17 19 19 25 26 26 29 27 26 25 23 24 22 22 21 22 22 22 23 22 23 21 21 22 19 16 16 16 11 14 14 14 15 15 16 16
57 56 53 50 47 47 46 44 38 23 26 22 20 26 24 22 26 24 22 21 17 11 12 16 19 21 23 20 22 22 20 17 14 16 15 13 16 11 12 13 15 13 14 15 17
55 56 54 52 47 48 47 43 34 35 27 30 34 24 23 24 26 25 22 19 21 18 16 13 12 19 22 19 18 20 18 19 12 11 11 19 14 13 17 16 16 17 17 17 16
55 55 54 54 49 50 46 37 37 36 37 37 37 36 32 24 22 25 22 21 21 20 15 15 15 21 23 22 20 19 19 19 22 11 15 13 14 16 19 16 16 17 18 18 17
53 52 52 54 51 49 42 39 38 38 39 38 35 37 34 31 35 30 29 26 24 24 22 19 17 19 19 21 21 21 22 20 21 16 12 13 13 13 15 15 16 16 16 18 20
51 47 51 51 50 45 37 38 38 39 39 37 37 36 36 36 35 32 33 32 32 25 26 26 25 24 19 19 18 20 20 20 20 25 17 15 15 15 14 16 16 17 16 19 20
48 40 51 51 41 42 38 38 40 39 40 39 39 38 36 36 36 37 37 37 36 31 32 31 31 31 30 24 21 19 18 19 17 19 20 20 18 24 22 22 22 19 18 15 21
44 42 50 50 37 39 39 39 40 38 38 39 38 39 38 36 35 36 36 37 37 36 37 37 34 28 29 31 27 16 18 19 19 20 20 22 23 22 20 20 24 22 20 15 15
40 36 43 44 44 39 36 37 37 40 39 39 38 37 36 35 35 34 34 38 39 37 39 39 34 30 24 22 26 22 22 20 17 16 17 17 17 17 18 20 21 23 22 17 16
37 33 38 33 37 39 37 37 33 33 35 36 35 36 35 33 33 33 35 35 35 37 38 37 33 35 34 33 31 29 29 27 23 22 21 19 19 20 20 22 22 24 24 22 20
32 33 35 34 34 37 36 33 34 33 31 32 33 34 34 33 33 33 34 33 33 35 34 36 32 35 32 34 32 31 30 30 28 27 26 27 26 27 27 26 25 26 26 26 25
34 36 35 28 28 26 29 30 31 32 36 36 34 31 31 31 31 31 33 34 34 32 29 31 31 30 27 31 30 26 31 32 30 30 30 27 28 31 32 31 30 30 33 34 33

GFSSW_sfc_dewp_009.txt.gz
Dewpoint
57 57 57 57 57 58 58 58 58 58 58 59 60 60 60 60 59 46 34 38 44 60 51 38 38 36 35 36 36 32 20 21 19 21 23 21 20 21 21 26 24 25 24 28 33
57 56 56 56 57 57 57 58 58 58 58 58 59 59 59 60 49 38 47 60 61 61 37 34 32 33 31 34 35 31 22 17 20 23 24 20 20 20 26 20 20 22 25 31 32
56 56 56 56 56 56 57 57 57 57 58 58 58 59 59 58 34 23 56 62 64 56 38 33 32 32 31 33 33 32 26 27 26 28 24 23 20 21 20 20 21 20 21 30 31
56 56 56 56 56 56 56 56 56 57 57 57 58 58 58 51 6 27 59 63 62 44 35 31 30 30 29 29 31 29 30 26 28 29 26 23 23 21 21 21 22 22 22 28 30
57 56 56 56 56 56 56 56 56 56 56 57 57 58 46 28 26 46 60 60 49 38 32 29 28 29 27 28 29 30 30 30 30 30 28 28 26 24 24 24 23 23 24 25 28
56 56 56 56 56 56 56 56 56 56 56 56 57 57 37 16 28 46 45 47 39 37 31 29 28 30 28 28 28 27 27 27 28 28 28 26 25 25 24 25 24 25 25 24 27
57 56 56 56 56 56 56 56 56 56 56 56 56 55 40 19 35 42 40 38 35 34 30 31 30 28 26 25 28 27 24 23 24 25 25 27 22 24 24 23 22 24 25 26 26
57 56 56 56 56 56 56 57 57 57 56 56 56 51 20 35 37 35 35 33 32 32 32 33 31 29 27 28 23 21 26 19 17 24 22 21 15 14 23 24 23 23 23 24 25
57 56 56 56 56 56 56 57 57 55 56 57 51 41 22 43 33 34 33 30 31 33 31 33 30 27 26 24 20 20 16 17 19 22 21 22 19 20 23 23 22 22 22 22 22
57 56 56 56 56 56 56 56 54 54 56 55 47 27 19 26 36 33 33 32 31 31 29 30 29 24 26 21 14 17 18 19 16 15 24 23 23 23 23 22 22 21 22 22 22
57 57 57 56 57 57 53 44 32 28 40 24 30 21 24 35 37 33 33 33 32 28 23 28 24 21 19 23 18 16 16 16 17 18 22 22 21 21 21 22 22 23 23 22 22
57 57 57 56 56 55 45 42 41 42 29 35 35 33 34 36 29 35 32 28 29 25 25 27 23 23 22 21 23 22 20 19 19 19 18 18 17 18 19 20 20 19 19 19 19
57 56 56 56 55 48 42 41 46 45 34 29 31 28 26 32 29 28 30 29 26 25 25 20 20 27 24 22 21 21 20 18 18 20 20 19 17 18 19 20 19 20 20 20 20
57 57 56 55 50 46 42 44 46 43 24 21 24 25 30 31 23 29 29 28 27 23 25 24 25 23 25 23 21 17 21 21 21 21 16 17 11 11 13 14 16 19 19 20 22
57 57 56 53 48 45 45 47 46 34 28 28 24 33 33 20 24 24 27 27 23 24 22 14 22 23 23 22 23 20 21 19 19 19 20 20 17 19 15 13 16 17 19 19 20
57 56 55 51 48 47 46 46 37 27 28 25 24 25 25 27 26 26 25 24 24 22 22 22 22 22 21 23 24 22 20 21 22 19 17 17 16 12 13 13 14 15 15 17 17
55 57 54 50 48 48 45 45 39 32 32 27 20 25 21 20 25 23 22 23 18 13 13 15 19 21 22 19 22 21 19 16 14 15 14 14 16 11 13 12 13 13 15 16 17
53 55 55 51 48 48 49 44 33 36 32 33 31 25 28 23 27 24 21 19 20 17 14 13 19 18 21 19 17 21 19 19 10 13 14 18 14 14 15 16 17 18 18 19 19
52 55 54 54 50 52 48 37 33 35 36 35 37 34 33 26 27 24 22 21 22 19 18 16 17 21 22 21 18 18 18 18 20 15 16 13 14 16 19 16 15 17 18 19 19
48 52 51 54 52 51 43 37 37 39 38 38 35 35 33 24 33 27 26 26 24 23 21 19 17 19 19 24 21 19 21 19 20 15 13 14 13 14 16 16 17 19 20 21 20
48 45 48 51 51 45 37 37 38 39 39 37 37 36 35 35 35 35 36 33 29 26 24 28 30 26 26 21 24 19 20 20 19 23 17 16 19 20 19 16 16 20 22 22 21
46 39 50 51 42 42 38 38 39 38 40 39 39 37 36 36 35 36 36 36 38 35 35 36 34 31 29 26 27 22 23 22 19 18 19 18 19 24 23 24 23 26 27 24 19
40 39 50 49 37 38 39 39 39 38 38 39 38 39 38 36 34 33 33 35 38 39 36 35 34 29 29 28 31 32 31 29 28 24 21 19 18 22 22 22 23 25 23 24 23
38 32 41 44 41 39 35 35 36 40 39 39 38 37 36 35 36 35 35 35 37 37 40 40 35 33 28 30 28 28 26 26 26 25 22 20 18 21 22 21 21 21 24 27 28
36 31 36 29 35 36 36 34 31 32 38 39 36 37 36 34 34 34 34 35 34 36 36 37 32 33 32 33 35 34 33 33 30 25 21 22 24 26 25 23 29 33 32 31 30
33 31 34 31 31 32 33 30 32 31 33 32 32 32 32 34 35 32 31 31 32 33 30 33 27 28 28 27 26 29 32 32 31 29 27 27 26 29 28 27 27 25 21 21 22
33 34 34 27 28 27 27 29 28 29 33 34 32 33 32 34 33 31 28 29 30 27 26 27 26 25 20 22 21 19 21 20 20 28 28 25 24 27 24 23 27 25 19 19 21

GFSSW_sfc_dewp_015.txt.gz
Dewpoint
57 57 57 58 58 58 58 58 58 58 58 58 59 59 59 59 58 49 31 37 43 62 51 39 38 36 37 38 36 33 25 23 22 22 19 24 22 23 24 22 24 26 26 27 37
57 57 57 57 57 57 57 57 57 57 57 58 58 58 58 59 50 38 46 57 62 58 36 34 34 34 32 36 37 32 26 21 20 20 22 23 22 24 24 23 22 23 25 31 37
56 56 57 57 57 57 57 57 57 57 57 57 57 58 58 56 23 14 57 58 63 52 35 34 34 33 33 35 35 33 28 26 22 20 25 27 25 24 23 25 25 24 24 27 33
57 57 57 57 57 57 57 58 58 58 57 57 57 57 58 48 7 18 60 62 62 37 33 33 32 32 31 30 33 30 31 28 30 29 29 27 28 25 23 26 27 25 25 26 29
57 57 57 57 57 58 57 57 58 58 57 57 57 57 46 20 19 50 62 62 42 36 32 31 30 31 29 29 30 32 31 30 31 30 30 30 29 29 26 25 26 26 26 25 26
57 57 57 58 58 58 58 58 58 58 57 57 57 57 30 20 29 54 53 45 39 35 32 31 29 30 28 27 28 28 29 27 27 27 28 27 24 27 24 26 24 24 24 26 26
58 57 57 57 58 58 58 58 58 58 57 57 56 54 31 19 37 48 45 40 39 34 32 32 30 29 28 27 27 28 24 23 23 24 25 28 24 24 24 25 24 22 21 23 25
57 57 57 57 58 58 58 58 58 57 57 57 56 49 12 34 40 39 36 33 36 34 31 31 31 30 28 28 24 22 23 20 19 25 23 24 16 17 17 17 17 19 18 21 22
57 56 57 57 57 57 58 57 56 58 57 57 47 28 14 42 33 35 35 31 32 32 32 31 31 29 28 24 21 22 18 18 19 22 21 23 20 20 20 21 20 20 20 20 21
57 57 57 57 57 57 56 52 54 53 55 55 44 26 23 21 36 34 33 32 31 31 30 31 28 25 24 21 14 16 17 18 17 15 20 21 22 21 22 21 20 19 20 21 22
57 57 57 57 57 57 47 37 35 31 35 26 27 21 20 32 37 33 34 32 30 27 25 29 24 22 20 22 19 17 14 14 15 17 19 17 17 17 19 19 19 18 18 19 20
58 58 58 57 57 54 42 36 36 38 33 35 33 32 34 34 28 32 33 28 27 24 26 25 23 24 24 22 21 21 20 18 19 20 20 19 18 18 18 19 19 19 19 21 21
58 58 58 57 56 47 42 40 46 43 34 35 33 32 29 32 29 29 30 29 27 25 24 22 22 26 24 22 20 20 19 17 17 20 20 19 18 20 18 22 22 22 22 22 22
58 58 58 56 51 47 44 44 46 41 33 33 25 26 29 30 25 28 30 28 26 24 24 24 26 23 24 21 22 19 21 20 20 19 15 19 12 17 16 16 19 19 18 18 20
57 57 57 53 49 47 45 45 45 36 29 31 23 30 31 22 24 24 27 27 24 24 21 20 22 23 23 22 22 21 21 20 21 20 19 18 15 16 16 15 15 17 20 22 25
54 56 55 52 49 48 46 45 40 36 31 32 23 24 24 25 24 25 26 25 24 23 24 22 24 22 20 22 23 22 21 20 21 19 16 17 16 16 14 14 15 17 18 20 22
51 53 54 51 50 47 46 47 37 34 37 32 24 23 20 18 23 23 24 23 18 17 18 18 19 22 22 19 23 23 19 17 16 17 17 16 16 16 15 16 17 17 18 18 22
49 52 54 53 48 47 50 45 33 33 35 36 32 26 27 24 25 23 21 19 21 17 16 19 25 19 21 20 20 22 20 21 20 17 20 19 19 21 19 19 19 19 19 21 26
49 51 52 53 49 51 48 35 35 33 36 36 35 33 31 30 29 24 21 22 24 20 20 19 22 21 21 20 20 20 18 21 22 24 19 19 20 24 22 19 20 21 23 28 28
44 47 47 52 51 51 43 34 37 37 38 38 34 34 31 32 28 27 26 27 23 24 22 24 28 26 24 21 21 20 21 20 21 19 19 19 20 20 22 23 23 29 30 29 27
45 41 44 52 52 46 35 34 36 38 40 38 38 36 35 34 35 35 36 37 31 27 25 31 31 28 31 23 21 21 20 20 20 27 24 20 21 24 26 29 30 30 29 26 24
42 31 46 53 41 41 36 37 38 37 38 38 38 38 36 35 34 33 33 33 36 31 30 34 36 31 30 31 27 27 26 25 27 27 28 27 26 28 29 31 29 24 22 20 20
37 36 45 50 35 35 37 36 37 36 37 37 34 36 36 34 33 33 33 36 37 39 38 39 35 28 28 27 31 31 31 32 33 32 28 24 25 34 31 27 25 20 20 20 18
34 27 35 44 39 35 31 32 32 35 36 36 35 36 34 33 34 33 35 35 37 36 39 38 34 32 25 26 33 31 32 33 33 28 26 27 27 26 26 24 25 23 22 20 20
32 28 32 25 30 33 31 31 30 30 33 32 32 34 33 32 31 30 34 35 35 35 33 35 30 31 32 33 27 27 27 26 25 25 24 23 23 22 24 22 23 25 24 20 18
28 26 29 29 30 29 32 27 27 28 29 26 27 28 29 28 30 31 32 30 30 32 31 34 27 26 22 25 24 21 20 20 20 22 24 23 22 22 21 20 19 16 25 21 13
30 31 30 24 26 24 24 26 26 26 31 28 26 27 25 30 31 32 32 31 31 29 28 28 25 23 19 20 19 15 17 17 17 16 17 16 18 21 19 20 20 18 22 22 15

GFSSW_sfc_dewp_021.txt.gz
Dewpoint
57 57 58 58 58 58 58 58 58 58 58 58 58 58 59 59 58 50 30 38 43 60 54 36 34 34 35 35 35 34 23 19 18 16 11 19 19 21 22 21 19 23 24 24 33
56 57 57 57 58 58 58 58 58 58 58 58 58 58 58 58 45 34 48 54 62 58 35 33 32 32 30 32 34 29 26 20 18 14 14 13 17 19 19 19 17 18 23 26 27
56 57 57 57 57 58 58 58 58 58 58 58 58 58 58 56 34 17 56 59 63 55 34 32 30 31 30 32 32 30 25 20 20 21 19 19 19 19 21 19 16 15 16 19 23
57 57 57 57 58 58 58 59 59 59 58 58 58 58 58 45 17 29 59 62 62 39 33 31 29 29 28 28 26 30 25 27 26 26 26 24 21 21 23 22 21 21 22 22 24
57 57 57 57 58 58 58 59 59 59 59 58 58 58 49 24 20 50 61 61 43 35 31 29 28 27 25 20 26 30 26 23 25 26 29 28 25 22 22 21 21 21 21 21 23
58 58 57 58 58 58 58 59 59 59 58 58 58 57 38 23 34 49 53 51 36 34 31 30 26 26 25 23 23 22 27 25 23 23 24 25 24 22 18 18 17 19 17 17 19
58 57 57 57 58 59 59 58 58 57 58 58 58 51 31 29 37 47 48 42 39 35 32 32 31 28 27 26 26 26 23 21 20 19 21 24 21 20 19 17 17 18 15 15 16
57 57 57 57 58 58 59 58 56 58 57 56 58 46 28 33 37 41 38 36 38 36 34 33 32 30 29 26 25 22 21 20 18 21 22 24 16 16 17 16 15 15 15 18 17
57 57 57 58 58 58 58 56 57 57 57 57 49 40 25 40 30 33 34 30 35 33 33 30 32 28 27 24 20 21 18 19 19 18 20 23 18 18 19 19 18 19 17 17 18
57 57 58 58 58 58 57 51 57 55 54 49 38 29 25 24 34 33 33 33 31 34 31 30 28 25 23 20 18 20 19 18 17 17 20 21 20 20 20 19 18 17 18 19 20
58 58 59 58 58 58 51 45 45 43 40 37 39 34 38 32 34 33 32 31 30 29 25 29 24 22 22 22 21 20 19 18 20 22 22 21 20 19 18 18 18 18 19 19 21
59 59 59 58 58 56 49 43 41 41 40 41 41 39 34 33 30 32 32 28 28 25 27 27 23 24 24 23 23 21 20 20 21 21 21 21 19 19 20 20 20 20 20 21 22
59 59 58 58 57 53 47 44 44 41 39 39 38 37 34 35 36 35 31 29 27 26 26 25 25 25 23 23 22 21 21 20 20 22 20 19 19 22 20 23 21 19 22 25 26
58 58 58 57 52 52 47 45 45 42 35 34 33 30 29 31 31 29 31 30 29 28 29 27 27 25 24 22 22 21 22 22 20 20 19 22 19 22 22 21 19 21 25 27 27
58 58 58 53 53 50 47 45 46 43 29 33 26 33 30 26 25 27 29 29 27 26 25 23 24 24 24 22 23 21 24 20 21 21 23 21 20 21 22 20 18 23 27 29 29
57 57 55 54 53 50 47 46 46 36 30 33 26 27 25 24 24 27 28 28 26 25 25 24 24 22 22 22 24 23 21 21 22 23 23 22 20 20 18 16 19 24 27 29 29
53 55 55 53 49 50 48 49 37 33 35 32 27 24 24 22 23 23 24 24 23 23 24 25 24 24 23 22 24 22 21 23 22 25 26 22 24 23 23 18 20 25 28 28 29
50 54 55 53 50 49 52 43 35 33 32 36 34 32 32 32 29 26 27 27 27 23 25 23 20 25 23 23 25 26 24 25 21 22 24 30 26 25 24 24 27 28 28 29 28
50 51 51 52 51 53 47 37 33 30 31 32 33 30 29 32 31 30 29 28 29 29 24 22 23 29 26 25 23 24 23 25 27 30 27 25 25 27 27 27 28 28 27 26 27
50 49 46 52 52 52 41 35 31 30 35 34 29 27 25 28 30 28 28 29 30 27 26 31 29 30 28 27 25 22 24 26 25 25 22 21 22 19 23 26 29 28 25 24 25
48 41 46 53 54 45 37 33 29 31 38 35 31 29 27 27 29 33 33 34 33 32 30 32 34 28 29 26 25 23 23 24 24 27 25 22 20 27 28 29 28 25 24 22 21
44 34 49 54 41 39 35 32 35 35 37 35 35 34 32 29 29 30 28 28 33 34 31 31 30 29 25 25 26 28 28 27 26 25 25 25 27 31 31 29 26 23 23 22 22
36 38 48 51 34 36 34 32 33 34 33 34 34 35 31 30 29 28 28 30 34 33 32 35 32 27 26 20 32 32 31 31 32 33 30 28 24 30 30 28 27 27 26 22 21
36 29 40 44 40 33 31 29 30 35 33 32 31 32 32 30 30 27 26 29 37 34 40 38 34 30 23 20 24 27 29 31 33 28 27 27 28 28 32 32 30 28 24 21 16
37 27 33 33 37 35 31 27 25 27 31 32 29 30 27 24 23 23 24 26 31 34 31 31 28 28 27 24 24 26 26 26 24 26 25 24 26 25 23 22 22 19 18 19 15
31 31 34 32 32 32 32 29 28 26 27 25 25 23 29 27 26 26 27 27 25 23 23 25 25 25 23 22 21 21 23 23 24 25 24 23 20 19 17 16 15 13 11 9 7
36 35 33 29 30 30 31 31 27 27 28 28 26 26 26 25 27 28 28 28 29 27 25 24 24 23 18 18 17 17 18 15 16 16 15 13 21 22 18 14 13 13 11 10 8

GFSSW_sfc_dewp_024.txt.gz
Dewpoint
57 57 57 58 58 58 58 58 58 58 58 58 58 59 59 59 59 54 38 45 45 61 58 38 35 36 39 39 40 38 29 24 22 22 18 21 20 22 21 21 22 23 24 25 37
56 57 57 57 58 58 59 59 59 59 58 58 58 58 59 59 48 37 50 61 61 61 38 35 34 35 33 37 38 34 32 27 21 19 19 18 18 19 18 20 20 19 21 26 32
56 57 57 58 58 58 59 59 60 59 59 59 58 59 59 57 41 32 58 60 60 57 38 35 33 34 32 35 34 34 30 26 22 24 26 24 23 20 18 21 22 19 21 23 25
57 57 57 58 58 58 59 60 60 60 59 59 59 59 59 49 25 43 59 62 61 45 36 35 32 34 32 30 31 28 29 27 29 27 29 27 27 25 23 22 24 23 23 23 23
58 58 58 58 58 58 59 59 60 60 59 58 58 59 52 34 29 51 61 62 49 42 34 32 30 31 29 25 24 26 29 28 27 27 26 27 28 28 25 23 22 22 22 23 21
58 58 58 58 58 59 59 59 59 59 58 58 58 58 46 30 39 50 51 52 38 36 33 32 30 30 28 25 25 26 28 26 25 24 24 24 24 25 23 23 20 19 20 19 19
58 57 57 57 58 59 59 59 58 57 58 58 58 53 39 33 41 49 49 45 41 37 35 34 33 35 31 29 28 27 25 24 22 23 23 25 23 22 22 19 17 17 17 18 19
57 57 57 58 58 59 59 59 56 58 57 56 58 49 34 38 41 43 40 40 41 39 37 36 37 34 33 31 28 24 23 22 22 22 27 22 19 21 19 20 20 20 19 20 21
57 57 57 58 58 58 59 58 55 57 57 57 53 47 31 42 34 35 36 35 38 37 36 30 38 32 31 27 24 23 19 20 22 23 24 23 21 22 22 21 21 21 20 20 20
57 58 58 58 58 58 58 56 56 55 55 50 42 36 30 29 37 36 35 37 36 36 34 34 32 28 27 23 19 21 21 21 21 22 23 23 23 24 23 22 20 19 19 20 25
58 58 59 59 59 59 55 48 47 46 42 39 42 35 40 34 37 35 36 33 33 33 29 32 27 25 25 24 23 24 22 21 22 23 23 23 23 22 22 21 20 20 21 24 25
59 59 59 59 58 58 54 46 44 44 40 43 42 42 38 35 34 34 34 30 31 27 29 30 27 27 27 27 25 24 23 21 22 23 23 23 22 21 20 20 22 22 24 25 26
59 59 59 58 58 55 49 45 45 44 40 41 41 39 37 37 38 35 32 32 29 28 28 27 28 30 28 25 24 23 23 22 22 23 21 21 22 23 24 23 24 26 26 28 29
59 59 59 58 53 52 48 46 46 45 37 36 34 32 31 36 34 32 33 33 31 30 31 29 29 27 27 25 25 22 24 24 24 21 18 24 20 23 23 24 26 27 28 29 29
58 58 58 55 54 50 47 46 47 45 30 34 28 36 34 31 29 31 32 31 29 29 28 28 26 26 26 24 25 25 25 23 22 21 22 22 22 22 24 22 25 28 29 29 29
57 57 56 54 54 50 48 47 48 37 32 31 30 30 28 27 27 30 30 30 30 27 27 26 25 24 24 24 25 25 22 22 22 21 23 23 22 21 19 20 24 27 29 29 28
56 57 55 53 50 51 49 49 40 34 36 32 29 27 28 25 25 25 27 26 25 24 24 26 25 25 26 24 26 24 22 23 22 22 23 26 24 23 21 20 24 27 28 29 28
53 56 55 53 50 50 50 45 35 37 35 37 32 32 33 33 30 25 28 26 28 26 25 25 23 25 24 24 25 26 25 25 17 17 20 27 24 25 26 27 28 29 29 28 28
52 52 52 54 52 52 50 38 36 36 34 33 36 32 32 34 32 30 30 29 30 29 27 22 21 26 26 26 25 25 24 26 24 22 21 23 23 25 28 28 28 27 26 27 27
50 48 49 53 52 52 42 38 35 35 35 35 31 30 26 26 30 30 27 30 30 29 31 32 29 30 28 27 25 24 25 25 27 24 17 20 20 19 28 28 28 25 25 24 23
48 43 49 54 53 44 36 36 34 33 37 33 29 29 27 27 28 28 30 34 34 29 33 33 33 29 29 28 25 23 24 25 25 25 20 18 18 28 29 29 25 24 23 22 20
45 37 49 54 41 41 38 35 35 34 36 36 35 34 33 32 29 28 30 31 33 34 32 33 31 26 27 27 28 27 26 27 25 22 24 24 23 31 29 27 25 24 24 23 23
40 41 49 51 34 35 35 33 33 33 33 33 33 34 32 29 29 29 29 33 34 34 35 35 30 21 19 18 33 31 31 29 28 33 28 25 24 30 28 26 26 29 29 27 24
40 34 42 45 41 35 33 31 31 36 33 33 32 33 32 30 31 28 28 34 36 37 39 37 30 24 16 16 22 23 24 25 28 26 22 21 22 23 29 32 33 33 31 25 22
37 31 37 34 37 37 34 31 29 30 34 33 31 31 30 28 27 27 29 27 33 37 33 31 25 28 27 26 25 24 23 23 23 23 21 19 19 21 22 24 20 18 18 20 20
33 32 34 34 33 36 35 30 28 27 30 28 30 25 28 28 27 25 29 28 27 28 29 27 19 23 17 23 23 20 20 20 19 19 19 19 19 20 18 15 15 15 13 12 8
37 36 35 31 32 31 32 31 29 29 30 29 28 27 25 28 29 28 28 28 29 27 24 23 20 11 10 18 16 9 14 14 13 13 13 12 17 21 18 14 12 11 13 14 12

GFSSW_sfc_dewp_027.txt.gz
Dewpoint
57 57 58 58 58 59 59 59 59 59 59 59 59 59 59 59 58 55 44 45 47 62 57 40 37 35 36 36 36 33 24 21 21 17 16 20 18 21 21 20 22 22 22 23 36
57 57 57 58 58 58 59 59 59 59 59 59 59 59 59 59 53 41 52 62 61 62 38 34 33 33 32 34 35 30 27 24 23 20 23 23 22 21 18 18 18 21 22 26 38
57 57 57 58 58 58 59 60 60 60 59 60 59 59 59 58 41 35 57 61 61 59 42 36 34 32 32 32 33 32 27 28 26 27 27 26 25 24 20 20 20 21 21 23 27
58 58 58 58 58 58 59 60 60 60 59 59 59 59 59 51 15 44 58 59 60 46 39 34 32 30 29 28 31 28 29 28 30 28 27 26 28 27 27 26 24 24 24 24 23
58 58 58 58 58 58 59 60 60 60 59 58 58 59 52 37 32 53 61 61 50 42 35 32 31 30 28 26 24 24 27 28 28 27 26 26 25 27 26 26 27 26 24 22 22
58 57 57 57 58 59 59 59 59 59 58 58 58 58 45 29 45 52 53 51 40 38 34 33 30 29 27 25 24 26 28 26 25 24 25 24 23 25 24 24 21 20 20 19 19
58 57 57 57 58 59 59 59 59 57 58 58 58 54 43 31 45 51 50 45 42 38 36 36 34 31 32 26 28 27 23 24 24 24 23 24 22 22 24 21 20 20 20 20 24
57 57 57 57 58 59 59 60 58 57 58 56 58 51 29 37 42 45 41 39 40 39 37 36 34 34 32 31 27 23 23 21 22 23 25 21 18 20 21 20 20 21 21 21 29
57 57 57 58 58 59 59 59 56 57 57 58 52 47 32 41 34 35 35 36 37 35 32 30 33 31 28 26 24 24 17 20 22 25 24 21 19 21 22 22 22 22 21 27 28
57 57 57 58 58 59 59 58 55 55 55 53 47 34 32 30 36 35 34 36 35 35 32 33 30 26 26 24 17 19 20 21 21 22 23 23 22 23 24 23 22 21 24 27 28
57 57 58 59 59 59 56 49 46 45 44 39 36 30 36 35 38 35 35 33 34 33 28 30 25 23 22 23 21 21 22 22 22 23 23 22 23 23 23 23 21 23 26 27 29
58 58 59 59 59 59 54 44 43 44 40 43 44 43 36 35 34 34 34 29 30 27 29 28 25 27 27 27 25 24 23 22 23 24 22 22 21 21 22 22 23 25 26 28 29
58 59 59 59 58 55 47 44 44 42 39 41 41 40 37 38 37 34 32 30 27 27 27 27 27 29 27 26 24 23 22 23 23 23 20 20 22 22 24 26 27 28 29 30 29
59 59 59 58 53 51 47 45 45 42 36 37 36 33 33 36 34 31 33 32 30 28 29 28 28 27 28 27 26 23 25 24 23 20 16 22 18 23 24 25 27 28 29 29 29
58 58 58 57 53 50 48 46 46 43 27 33 30 36 32 31 30 30 31 30 29 29 27 28 25 24 25 25 25 24 25 23 22 19 22 20 20 23 24 25 27 28 28 28 28
58 58 57 55 54 50 47 46 46 35 30 30 30 31 27 27 26 30 30 29 28 26 26 26 25 24 24 25 25 24 21 22 21 20 20 22 22 22 19 23 27 28 28 27 26
57 57 56 54 51 49 48 48 38 34 36 30 28 27 28 25 25 27 26 24 24 23 23 25 25 25 25 22 25 22 22 22 19 19 19 25 22 22 24 24 27 28 27 27 26
57 56 55 54 51 50 49 46 34 37 37 33 27 27 32 24 27 24 25 25 26 25 24 24 22 24 24 24 24 24 24 22 13 17 17 24 21 23 28 28 28 28 28 28 28
54 52 54 55 54 53 49 39 37 36 35 36 35 33 32 33 31 27 26 28 29 26 24 24 21 25 26 25 27 25 24 26 24 18 19 23 24 29 28 27 26 26 27 27 27
49 48 50 55 54 53 44 39 37 37 33 34 32 33 29 30 31 30 29 29 29 29 32 31 25 31 27 28 26 26 26 24 25 14 15 21 21 21 27 26 25 25 24 23 23
47 44 49 54 53 45 36 38 37 35 35 33 32 30 27 27 30 29 29 33 32 29 33 33 32 29 29 29 26 23 24 25 26 26 19 16 17 28 28 26 24 23 23 22 20
45 39 49 53 40 41 37 38 36 33 37 36 35 33 32 31 29 28 29 30 34 32 30 32 32 25 28 28 28 27 25 26 24 20 24 24 21 30 28 26 25 24 24 23 21
41 41 48 50 35 36 38 38 36 33 34 35 34 34 33 31 30 30 29 34 34 34 32 34 28 17 18 21 31 29 29 26 26 32 25 23 22 29 27 26 25 25 25 24 22
41 36 41 45 42 37 36 35 33 35 33 34 34 35 34 32 31 28 29 35 36 38 38 35 31 21 13 13 26 24 25 25 26 22 17 19 21 21 21 28 30 30 32 30 23
39 35 37 35 38 38 36 34 31 31 35 34 33 32 31 29 29 29 29 33 35 38 34 30 24 28 27 27 25 25 24 24 22 22 20 18 18 19 19 20 20 20 26 27 22
35 33 34 34 37 37 36 33 30 30 33 30 31 32 32 30 27 25 28 27 27 32 30 30 19 24 16 23 23 21 21 21 20 20 18 17 16 17 18 15 16 14 13 12 9
36 35 34 31 32 35 33 33 30 30 30 30 31 30 27 28 29 28 28 28 28 26 24 24 21 12 8 20 15 9 14 14 14 14 12 10 14 18 17 15 11 9 10 12 13

GFSSW_sfc_dewp_030.txt.gz
Dewpoint
57 57 58 58 58 59 59 59 59 59 59 59 59 59 59 59 57 54 39 43 46 61 55 39 35 34 34 35 34 31 22 20 19 18 18 21 19 19 20 20 21 22 20 22 34
56 57 57 58 58 58 59 59 59 59 60 60 59 59 59 59 52 43 50 61 63 62 37 33 33 34 31 33 34 27 23 20 22 23 23 23 23 22 20 20 19 19 22 27 38
57 57 57 57 58 58 59 60 60 60 60 60 59 59 59 58 35 34 56 59 62 57 39 36 34 32 30 33 32 31 24 26 27 26 27 25 24 26 23 22 20 20 22 23 34
58 57 57 57 58 58 59 60 60 60 60 59 59 59 59 51 17 41 58 60 61 45 38 33 32 29 28 27 31 28 30 28 30 30 27 25 27 26 26 25 26 25 26 25 24
58 57 57 58 58 58 59 60 60 60 59 58 58 59 51 35 30 52 60 59 44 41 35 33 29 29 27 27 25 27 27 27 28 27 26 26 24 24 25 26 26 25 23 21 21
58 57 57 57 58 58 59 60 60 60 58 58 58 58 41 28 47 53 50 46 39 37 34 33 30 30 28 26 24 25 27 25 25 25 24 23 23 24 22 24 22 20 21 24 29
58 57 57 57 58 59 60 60 60 58 58 58 58 54 43 28 48 52 47 43 40 37 35 36 33 31 31 27 28 27 23 23 22 24 23 25 22 23 23 23 20 20 22 29 30
58 57 57 57 58 59 60 60 60 57 58 57 58 51 26 36 43 46 42 38 39 38 36 35 34 31 30 30 25 23 22 18 21 24 24 21 19 21 21 20 20 22 26 28 29
57 57 57 57 58 59 59 59 59 56 57 58 51 44 29 41 34 35 36 35 36 35 32 31 32 29 28 24 21 23 15 20 21 25 24 20 19 21 22 22 23 21 27 28 30
57 57 57 57 58 59 59 57 55 55 55 54 49 36 33 27 35 35 33 36 34 33 30 31 29 26 25 21 14 17 19 20 21 23 23 22 21 22 23 24 22 25 27 29 29
57 57 57 58 59 59 57 50 45 45 47 39 34 31 32 35 37 34 35 32 34 31 23 30 23 19 19 23 18 19 20 21 23 24 23 22 23 23 24 24 22 26 29 29 29
57 57 58 58 59 59 54 46 43 43 40 43 42 42 36 35 34 34 33 28 30 25 29 28 23 23 25 24 23 23 23 22 23 24 22 22 21 21 22 25 25 27 29 29 29
57 57 58 59 58 55 49 45 44 42 40 41 41 42 38 38 37 35 31 30 28 26 28 26 26 29 27 26 25 23 22 22 23 24 21 21 22 23 26 28 29 29 29 29 29
58 58 58 58 54 52 47 45 45 42 36 36 37 34 33 36 35 31 32 30 29 26 27 27 28 27 27 26 27 25 26 25 24 21 19 20 17 21 24 26 28 28 28 28 27
58 58 58 57 52 50 48 46 46 40 28 34 32 35 32 34 30 29 31 30 29 29 28 28 26 26 26 26 27 25 25 22 22 22 21 18 17 19 26 25 27 27 27 27 27
57 58 58 57 54 51 47 47 45 36 30 29 29 28 25 26 27 29 29 29 29 27 26 27 24 24 23 24 25 24 21 24 23 21 19 19 20 22 21 24 27 27 26 26 26
57 57 57 56 53 48 48 47 38 34 35 28 27 28 27 24 25 26 26 24 23 21 22 24 25 25 24 21 24 22 23 21 17 18 19 24 22 22 27 26 27 26 25 25 24
57 57 56 56 50 48 50 45 34 36 36 32 27 27 25 25 25 24 25 23 25 25 25 24 23 24 24 22 23 23 24 21 10 17 19 23 19 21 28 28 27 27 27 26 25
57 55 55 54 54 54 49 38 37 37 39 32 32 30 32 29 28 23 24 24 28 25 24 24 24 25 25 26 26 25 24 25 23 14 18 23 25 28 28 27 27 27 27 27 26
51 50 51 55 55 53 45 38 40 39 35 36 31 33 31 32 30 26 28 29 29 28 31 28 25 30 27 29 27 26 26 23 24 12 16 20 22 22 26 25 26 26 26 26 26
49 46 49 55 53 47 39 39 41 37 34 32 34 32 31 28 32 29 29 31 29 30 33 33 28 27 29 28 27 24 24 25 25 23 14 12 16 25 27 26 25 25 24 23 23
47 41 49 53 42 42 38 40 38 34 37 36 34 31 28 29 28 28 28 30 32 33 31 32 32 24 27 27 28 26 24 25 21 18 22 22 17 30 29 26 25 25 24 23 22
43 41 49 50 38 37 39 39 37 36 37 37 34 34 33 31 29 30 29 33 34 33 32 32 27 15 19 20 30 26 28 26 29 28 19 20 21 28 27 26 26 26 25 24 22
42 36 41 45 43 37 37 37 37 39 35 35 34 35 32 31 31 26 31 33 35 37 38 35 28 22 18 12 25 23 25 25 25 21 20 23 23 24 26 26 26 27 27 26 22
40 37 38 35 38 38 38 37 36 34 37 37 34 33 32 30 31 30 29 33 34 38 34 31 29 28 27 27 26 26 25 24 23 22 18 14 15 16 18 20 19 22 26 31 25
36 35 36 36 38 38 37 36 34 35 34 32 32 33 33 30 30 29 31 31 30 34 31 29 21 25 18 24 24 23 23 22 23 23 22 21 19 19 17 16 18 16 22 27 23
38 38 37 35 35 37 35 35 34 32 33 32 32 30 31 32 30 29 29 29 29 30 28 27 22 15 13 18 14 7 14 14 10 15 13 10 14 17 16 17 17 16 13 11 11

GFSSW_sfc_dewp_033.txt.gz
Dewpoint
56 57 57 58 58 58 59 59 59 59 59 60 60 60 59 59 57 52 30 43 48 61 54 38 34 34 34 35 34 29 19 16 20 18 20 22 21 21 21 23 20 22 32 21 32
56 56 57 57 58 58 59 59 59 60 60 60 60 59 59 59 50 41 50 60 62 61 36 31 32 33 30 33 34 25 18 15 20 24 25 24 23 23 21 21 20 19 21 23 33
56 57 57 57 58 58 59 59 60 60 60 60 59 59 59 57 33 29 57 59 62 56 37 35 33 32 28 34 35 30 20 24 26 24 26 25 24 25 23 21 21 20 23 25 27
58 57 57 57 57 58 59 60 60 60 60 59 59 59 59 49 25 39 58 58 60 44 35 33 30 29 27 26 31 32 29 28 30 29 27 25 26 25 25 23 25 27 26 26 23
58 58 57 57 57 58 59 60 61 61 60 58 58 59 50 33 31 51 59 57 43 39 33 31 29 29 25 27 25 27 26 26 28 27 26 26 24 24 23 24 25 22 24 29 30
58 58 57 57 58 58 59 60 60 60 58 58 58 58 39 27 46 51 48 41 38 35 33 31 29 29 27 26 24 24 26 25 25 25 25 23 23 24 21 23 22 22 28 30 30
58 58 57 57 58 58 59 60 60 60 58 58 57 53 41 28 49 51 45 40 39 36 33 35 32 30 29 26 28 26 23 22 21 23 22 24 22 22 22 23 21 23 29 30 30
58 57 57 57 57 58 59 60 60 60 57 57 58 50 29 36 44 47 41 38 39 36 36 35 33 31 29 28 24 22 21 18 17 24 24 21 20 22 22 21 23 26 28 29 30
57 57 57 57 57 58 59 59 58 58 56 57 50 42 31 41 35 36 37 35 35 33 32 32 31 29 28 22 18 21 13 18 20 24 23 20 20 22 23 23 22 27 28 29 29
57 57 57 57 57 58 59 58 55 55 54 54 49 37 34 28 34 34 34 35 33 32 29 30 28 25 25 18 16 15 19 19 18 22 22 22 21 23 24 24 24 28 29 29 29
57 57 57 57 58 59 56 50 45 45 47 38 34 33 31 35 36 33 35 33 33 27 21 29 19 18 21 22 17 17 19 19 21 24 23 23 22 23 23 24 27 28 28 29 29
57 57 57 57 58 59 54 48 44 43 40 43 42 36 35 34 33 33 33 28 28 25 28 26 20 20 22 22 22 22 21 21 23 25 23 23 22 22 27 27 27 28 28 28 28
57 57 57 58 59 56 51 48 44 42 40 41 42 42 38 35 36 35 31 29 28 26 27 25 25 27 24 25 24 24 23 22 22 24 22 22 21 23 27 29 29 29 28 28 27
57 57 57 58 56 53 48 46 44 43 36 36 38 36 34 39 35 32 32 30 28 26 27 27 28 27 27 25 26 25 26 24 25 21 20 23 18 19 25 27 28 27 27 26 26
57 57 57 58 53 49 49 46 44 39 28 34 34 35 32 37 32 29 31 30 28 28 28 27 28 26 26 26 27 26 26 24 21 20 21 19 18 18 26 26 26 27 26 26 26
57 57 57 58 55 53 46 46 44 35 29 30 29 28 28 26 28 29 29 29 30 28 26 28 25 25 26 25 27 25 22 24 24 21 20 20 19 19 23 24 26 26 26 26 26
57 57 57 57 54 51 48 47 38 34 34 29 26 27 25 24 25 27 27 25 26 26 26 25 25 25 23 22 23 23 23 20 18 18 20 23 21 20 26 28 27 26 25 25 25
57 57 57 58 55 48 51 45 33 36 36 31 28 27 24 24 24 25 24 25 23 24 23 23 23 24 24 22 22 22 23 22 11 15 18 23 22 21 28 27 27 25 25 24 24
57 56 57 58 53 51 49 39 36 37 37 28 29 25 25 26 25 23 24 23 24 24 25 24 24 24 23 26 25 24 22 24 22 12 17 22 23 27 27 27 26 26 26 25 24
55 55 54 55 53 51 46 40 39 40 38 31 27 29 27 31 26 22 23 26 28 26 28 26 24 27 28 27 26 25 27 23 23 12 14 18 21 20 25 26 27 27 27 27 26
50 47 51 54 53 48 41 41 42 41 35 33 31 33 31 32 30 25 28 30 29 29 32 31 27 27 28 27 25 25 24 25 24 21 12 10 13 23 26 26 26 26 27 27 27
48 43 50 53 44 44 42 42 41 36 38 36 34 33 32 29 32 29 29 29 30 33 31 33 29 25 27 28 28 26 25 25 21 18 21 20 17 29 27 27 26 26 26 26 25
44 42 49 50 39 38 40 41 39 36 38 38 37 34 33 29 29 29 29 33 32 32 32 32 27 17 22 21 28 26 25 26 28 24 15 17 19 28 27 26 26 26 26 25 24
42 37 42 44 43 39 38 38 39 42 39 40 38 36 33 32 32 28 30 33 35 35 38 35 28 24 23 18 24 24 24 25 24 21 19 21 23 27 27 26 26 27 27 27 25
42 38 39 34 38 39 40 39 37 37 40 39 38 38 35 31 30 29 31 32 33 36 33 31 23 26 24 23 25 24 24 24 22 22 21 21 22 22 26 27 26 22 21 26 26
37 36 37 38 39 38 39 37 37 38 38 37 37 37 36 35 32 31 31 31 29 31 31 28 24 25 19 26 27 27 26 25 24 24 22 22 21 22 21 19 17 18 21 27 29
38 38 36 36 38 37 37 37 37 38 38 38 38 36 35 36 33 31 31 31 32 31 29 27 25 23 23 18 16 15 17 21 21 22 21 18 20 17 15 16 17 18 16 19 22

GFSSW_sfc_dewp_036.txt.gz
Dewpoint
56 56 57 57 58 58 59 59 59 60 60 60 60 60 60 59 57 50 26 42 46 60 54 36 33 33 34 34 32 26 16 13 19 16 20 23 22 21 22 23 20 21 34 21 34
55 56 57 57 57 58 59 59 60 60 60 60 59 59 59 59 48 38 49 57 61 59 34 29 31 31 30 35 33 22 14 11 19 30 32 24 25 27 30 22 21 19 23 26 26
57 56 57 57 57 58 59 60 60 60 60 59 59 59 59 57 33 26 57 58 61 55 35 34 33 30 27 36 36 28 16 20 24 25 26 25 24 24 29 21 22 22 25 25 29
58 57 57 57 57 58 59 60 60 61 60 58 58 59 58 47 27 37 57 59 61 41 35 32 30 29 25 31 30 31 28 26 29 29 27 25 26 25 25 24 27 24 26 30 30
58 58 58 57 57 58 59 59 60 61 60 58 59 59 48 30 31 51 58 55 43 37 32 30 29 28 23 27 25 31 27 27 28 28 26 26 25 23 22 23 22 29 30 30 30
58 57 57 57 57 58 58 59 60 60 60 58 58 58 35 28 45 50 44 39 38 34 32 30 28 29 26 25 23 23 25 25 25 25 25 23 22 23 22 22 24 29 29 30 30
58 58 57 57 57 58 59 59 60 60 59 58 57 52 36 31 49 50 43 38 38 34 32 34 30 28 28 25 28 26 22 21 20 22 21 24 20 22 22 22 24 28 29 30 30
58 57 57 57 57 58 59 60 60 59 57 57 57 47 32 36 47 47 40 38 37 34 35 34 32 31 28 27 22 21 19 18 17 24 23 25 20 23 21 23 26 28 28 29 29
57 57 57 57 57 57 59 59 56 57 56 57 49 40 32 41 38 38 36 35 34 32 32 31 31 29 27 21 19 19 19 16 18 24 23 20 20 22 24 23 27 28 28 28 28
57 57 57 57 57 57 59 59 55 54 53 53 46 37 35 29 34 34 35 35 32 31 30 29 27 25 25 19 20 18 18 18 17 22 23 22 22 24 24 23 27 28 28 28 27
57 57 57 57 57 58 56 50 45 44 47 38 36 35 32 34 35 32 35 33 31 24 22 28 21 20 22 20 19 17 19 18 20 23 23 23 23 23 25 27 28 28 28 27 26
57 57 57 57 57 59 54 48 45 42 40 44 43 35 35 33 30 31 33 27 26 24 27 24 19 21 21 23 20 20 19 19 22 24 23 23 23 25 28 28 28 28 27 26 24
57 57 57 57 58 58 53 49 44 43 40 41 43 42 41 35 34 33 31 29 26 26 25 23 24 25 22 22 21 21 19 21 21 24 23 24 21 24 28 28 28 28 28 26 24
57 57 57 57 56 54 52 52 44 44 37 36 39 39 36 37 36 34 32 29 27 26 27 25 27 27 25 24 23 22 25 24 23 24 22 24 19 20 26 27 27 26 26 25 25
57 57 57 58 53 50 50 45 43 39 28 35 36 35 34 37 33 30 31 30 27 28 27 28 27 26 26 26 26 25 27 25 23 22 20 21 19 19 26 25 26 26 25 25 25
57 56 56 57 55 52 46 46 43 34 29 33 30 28 32 28 28 29 29 29 30 28 27 29 27 27 27 26 27 25 24 24 23 21 19 20 20 20 23 24 26 26 26 25 25
57 56 56 57 52 49 48 46 38 34 34 29 28 28 30 25 26 28 27 26 28 28 27 26 25 24 23 23 23 23 22 20 18 18 20 22 19 20 25 27 27 26 26 26 25
56 56 55 56 56 49 51 44 34 36 35 30 29 26 26 24 23 26 27 27 27 25 27 25 23 25 25 23 23 23 23 21 12 14 16 23 21 23 27 27 27 27 26 25 24
56 56 55 56 54 53 48 39 36 37 37 27 27 23 23 25 23 24 25 26 28 24 24 23 23 25 23 25 24 22 21 24 21 12 16 21 22 26 27 26 25 25 25 24 24
55 54 53 56 54 53 45 39 39 39 37 29 29 26 23 27 23 21 23 23 25 26 28 26 23 26 26 25 26 25 26 23 23 13 11 18 19 19 25 25 25 25 24 24 25
54 49 52 57 55 49 40 39 41 41 37 31 31 29 26 30 26 22 24 26 28 28 29 28 26 27 27 26 24 24 24 25 24 21 15 11 13 23 24 26 25 25 25 26 26
49 43 50 57 46 45 41 42 43 43 39 35 34 33 31 32 27 25 25 27 30 32 28 31 28 25 26 28 28 26 25 25 22 19 19 19 18 29 27 27 26 26 27 28 28
45 43 49 50 41 41 43 43 43 37 39 37 34 34 32 32 31 31 30 32 32 32 32 32 27 18 22 25 27 26 25 26 26 24 17 17 19 28 27 27 27 27 27 26 26
43 39 42 45 43 42 40 40 40 42 40 41 38 36 34 31 33 31 30 34 35 34 38 34 28 24 22 22 26 26 26 26 24 18 20 21 22 26 27 26 26 26 26 26 26
43 39 40 36 38 40 40 39 39 38 41 42 39 38 35 35 34 33 32 33 34 38 33 31 25 26 23 21 24 25 25 25 24 24 22 22 22 23 28 28 27 26 26 23 23
38 38 39 37 39 39 39 37 36 38 39 38 38 38 39 36 36 33 32 32 31 33 31 29 25 26 23 26 26 26 24 25 25 23 22 21 21 20 24 24 24 24 21 19 22
39 39 37 37 37 37 37 37 37 39 40 40 39 39 38 39 38 37 36 36 35 33 31 29 26 25 24 19 21 23 24 25 24 24 23 22 24 20 19 20 20 19 18 20 24

GFSSW_sfc_dewp_042.txt.gz
Dewpoint
56 56 57 57 58 58 59 60 60 60 61 60 59 59 59 59 58 49 26 40 46 58 53 34 33 33 35 35 32 27 16 18 21 20 20 23 20 23 24 21 22 24 25 29 32
55 55 56 57 57 58 59 60 60 61 61 60 58 59 59 59 44 33 50 57 60 59 32 29 28 29 29 33 33 23 19 13 19 20 21 23 22 23 21 22 20 24 29 31 32
56 56 56 56 57 57 58 59 60 61 61 60 59 60 59 56 33 27 57 58 61 52 34 34 31 27 26 31 31 27 16 15 20 23 25 25 25 25 23 22 22 24 27 31 31
57 57 56 56 56 57 58 59 60 61 60 60 59 59 58 44 27 34 58 58 59 39 34 32 28 24 24 22 32 22 26 23 29 30 27 26 26 24 25 25 28 29 30 30 30
58 57 57 57 57 57 58 59 60 60 60 60 59 58 44 33 32 49 57 58 45 35 33 30 24 26 20 24 29 27 27 28 29 30 28 27 25 23 24 28 29 29 30 29 29
58 57 57 57 57 57 57 58 60 60 60 59 59 57 35 33 46 47 41 39 36 34 32 29 26 28 26 25 25 25 26 25 25 25 25 25 23 24 23 28 28 28 28 29 29
58 57 57 57 57 57 57 58 60 60 59 58 57 49 35 36 47 45 38 36 37 33 32 32 31 28 29 27 28 26 23 23 22 22 22 25 23 22 23 27 27 27 28 28 28
58 57 57 57 57 57 57 58 60 57 57 57 57 40 36 36 49 44 39 37 35 35 34 35 33 32 29 27 23 22 22 24 21 24 23 25 23 23 23 25 27 27 27 27 27
57 57 57 57 57 57 57 58 59 56 56 57 48 39 36 44 43 43 38 35 34 33 33 31 33 31 28 24 23 23 22 22 21 23 23 24 25 24 25 25 27 27 26 25 26
57 57 57 57 57 57 57 59 58 53 52 50 44 38 37 31 35 36 36 35 33 34 32 32 30 27 25 23 22 24 22 21 21 21 23 23 22 24 25 26 27 26 25 25 25
57 57 57 57 57 57 57 53 47 46 48 39 39 37 33 32 34 35 35 32 30 30 28 29 25 25 25 24 24 23 22 21 21 22 24 24 23 23 26 26 27 26 25 24 24
57 57 57 57 58 57 56 51 45 43 40 44 44 39 34 33 29 33 34 29 30 27 28 26 25 27 26 25 22 22 22 22 22 22 24 22 23 24 27 27 27 26 24 24 24
56 56 57 57 57 57 53 53 46 44 41 42 44 42 38 32 30 31 33 29 26 26 26 25 25 26 23 23 22 22 22 21 22 24 24 24 24 26 27 28 28 26 25 24 24
56 56 57 57 55 53 53 54 48 45 34 35 39 42 36 34 33 33 33 29 26 24 25 24 26 23 23 21 22 21 23 22 22 22 23 23 23 25 25 27 27 27 24 23 24
57 57 57 57 53 51 50 55 53 44 28 35 39 36 36 36 35 32 32 30 27 26 26 26 26 27 25 24 23 25 26 23 24 23 24 22 22 23 25 25 26 26 25 24 25
57 57 57 56 54 52 50 49 45 34 27 35 34 34 35 32 30 30 30 31 31 29 28 30 29 28 27 28 26 27 25 24 24 24 24 25 24 23 23 24 26 27 25 24 24
57 56 56 56 51 51 47 46 38 33 32 30 32 33 36 30 29 30 28 29 30 29 29 29 28 27 27 27 26 26 26 25 24 24 24 21 22 23 24 25 26 27 25 24 24
57 56 56 55 53 48 49 44 34 31 30 31 30 34 34 30 29 29 29 29 31 31 30 29 28 27 26 30 27 25 27 27 26 22 21 24 21 21 26 28 28 28 26 25 24
56 56 56 56 53 50 47 38 35 33 33 29 28 30 32 28 29 28 29 30 31 30 29 28 29 26 24 25 28 25 24 27 23 22 26 20 22 25 28 27 27 27 26 24 24
53 54 53 57 53 50 44 38 38 36 34 31 29 30 30 28 28 28 28 30 31 32 31 29 28 26 25 26 26 25 26 24 25 26 25 20 21 21 25 26 26 27 26 25 25
51 49 54 56 54 48 39 38 39 39 35 32 32 30 29 27 29 27 28 28 30 31 32 28 28 27 26 24 24 24 24 24 24 26 28 23 18 22 24 27 26 27 27 25 25
48 43 55 56 45 45 40 40 40 39 39 35 35 34 29 28 27 27 27 28 27 31 29 32 31 29 24 27 27 25 24 24 24 24 22 23 23 24 26 27 27 27 28 27 26
45 46 51 53 40 40 43 40 40 39 39 39 37 35 32 29 28 28 27 27 28 30 31 31 33 33 30 26 28 25 25 25 25 31 30 28 25 28 28 27 27 27 27 27 26
45 37 44 45 47 42 39 40 39 41 40 39 38 37 34 33 31 32 29 31 32 29 37 34 34 33 29 26 26 26 26 26 26 28 27 26 28 26 26 27 27 27 27 27 26
45 40 42 38 41 43 41 40 39 40 41 42 39 38 37 36 36 35 34 33 34 35 35 32 34 32 30 26 28 28 27 26 24 24 26 26 25 24 25 27 27 27 27 27 26
42 40 40 41 41 42 42 40 39 40 40 39 40 40 40 37 38 38 37 34 34 35 33 34 34 32 30 27 26 27 28 27 26 25 25 25 25 26 27 28 27 27 27 27 27
40 40 41 39 39 39 39 40 38 40 41 41 41 41 39 40 40 39 39 38 36 34 33 34 34 32 31 32 28 26 29 27 26 26 25 24 29 30 28 28 29 29 28 28 28

GFSSW_sfc_dewp_045.txt.gz
Dewpoint
55 56 56 57 57 58 59 60 60 61 61 61 59 60 60 59 58 48 31 43 47 58 53 32 31 31 31 31 30 27 14 13 14 15 17 22 19 21 23 20 21 25 26 30 31
55 55 56 56 57 58 59 60 60 61 61 61 60 60 60 59 46 33 50 58 60 60 32 27 24 26 23 28 30 23 18 9 15 16 18 21 20 21 20 20 20 25 29 31 32
56 56 56 56 56 57 58 59 60 60 61 61 60 60 59 55 38 30 55 58 61 51 32 30 27 22 22 27 26 24 15 13 17 21 22 22 22 23 20 20 21 22 28 30 31
57 57 56 56 56 56 58 59 60 60 60 61 60 59 58 45 27 37 57 58 60 38 33 30 24 20 21 21 27 21 21 17 26 27 26 24 24 22 23 26 28 29 30 29 30
58 58 57 57 57 57 57 58 59 60 61 60 60 59 48 35 34 47 58 57 41 35 31 27 20 22 21 19 25 23 23 25 27 29 27 28 25 23 23 28 28 29 29 29 29
58 57 57 57 57 57 57 58 59 60 60 59 59 57 40 34 44 44 40 41 34 33 30 28 21 24 21 21 23 25 26 23 25 26 26 25 22 24 22 27 27 28 28 28 29
58 57 57 57 57 57 57 58 59 60 58 58 57 48 39 36 44 41 36 34 35 33 30 31 28 26 26 25 27 25 22 22 23 24 23 25 23 24 24 26 26 27 27 28 28
58 57 57 57 58 57 57 58 59 59 57 57 57 43 37 37 45 42 38 35 34 33 33 33 32 30 28 28 24 23 24 24 24 24 24 25 23 23 25 25 25 26 27 28 27
57 57 57 57 57 57 57 58 59 57 56 56 48 42 36 45 41 42 38 34 34 33 33 32 33 29 28 23 24 25 21 24 23 23 24 25 24 25 24 24 25 27 27 26 27
57 57 57 57 57 57 57 58 59 54 52 48 44 40 37 33 37 40 37 35 33 34 31 31 28 25 25 24 21 22 23 23 23 22 23 24 23 24 24 23 25 27 26 26 26
57 57 57 57 57 57 56 54 46 46 48 38 39 36 35 33 36 37 36 33 33 31 28 31 25 25 25 25 23 24 23 22 23 22 23 23 22 22 25 25 26 27 26 25 25
57 57 57 57 58 57 55 46 44 45 40 45 43 40 34 32 30 35 35 31 31 29 29 29 26 26 26 27 25 25 24 23 24 22 23 23 24 25 25 26 27 27 26 25 25
56 56 57 57 57 56 52 49 48 45 40 37 42 41 38 32 31 33 33 31 29 29 28 27 26 27 27 26 25 24 24 23 23 25 24 23 25 26 26 27 27 28 27 25 24
57 56 56 57 55 52 50 52 51 46 34 28 39 42 37 35 33 33 34 29 26 26 28 27 27 26 26 24 25 24 25 24 23 24 23 26 22 25 27 27 28 28 26 24 25
57 56 56 57 49 49 49 53 54 48 26 30 38 40 38 35 34 32 33 29 27 25 26 25 26 26 25 25 25 25 26 25 25 26 27 27 24 24 26 26 27 28 27 25 26
57 57 56 56 55 51 53 54 51 34 24 34 36 37 35 36 32 31 30 31 31 28 27 27 30 27 27 28 26 28 27 26 26 27 26 26 25 25 25 25 26 28 26 25 25
56 56 56 56 52 51 52 51 37 29 27 28 34 35 35 34 31 30 29 28 27 26 27 28 29 30 29 28 28 27 27 28 26 25 25 24 26 26 27 25 26 27 26 25 25
56 56 55 56 54 50 53 45 33 30 27 33 33 34 34 33 32 30 29 28 29 28 27 27 27 30 29 30 30 28 29 29 28 26 25 23 23 24 27 27 27 28 27 25 25
55 55 55 56 54 52 48 37 34 30 29 30 32 32 34 32 31 30 30 30 30 30 28 28 29 30 29 30 32 28 27 30 28 27 25 22 23 25 29 27 27 27 26 25 25
52 52 52 56 55 51 44 37 38 35 30 30 29 29 30 32 30 30 31 32 32 33 33 31 29 28 27 26 27 28 28 26 26 28 26 23 23 21 27 26 27 27 27 25 25
51 46 54 57 54 47 38 38 38 38 35 32 31 28 27 31 31 30 31 31 32 33 33 32 31 28 26 25 26 26 26 26 26 28 29 25 21 24 27 27 27 28 27 26 26
49 41 55 56 43 44 40 40 39 38 38 36 34 32 30 30 30 30 30 31 31 33 31 34 32 33 27 27 27 27 26 26 26 27 25 27 25 21 26 27 27 28 28 27 26
45 44 53 54 40 40 42 40 39 38 38 38 35 35 33 31 29 31 31 31 31 32 33 33 35 34 33 27 27 25 25 26 26 32 31 29 25 26 27 27 27 28 29 28 27
45 38 44 46 46 42 39 39 39 41 39 39 37 37 36 35 32 31 32 31 32 32 39 37 36 36 31 29 27 27 26 26 27 28 28 28 28 24 26 26 27 28 29 28 27
45 38 41 38 39 41 42 40 39 38 40 40 39 38 37 36 36 33 33 32 32 34 35 37 35 36 35 33 31 29 28 27 25 25 26 27 26 26 23 25 26 26 28 28 27
40 40 42 40 40 41 40 39 39 39 39 39 39 39 39 38 38 38 38 35 32 32 31 36 35 36 34 35 34 32 31 29 27 26 25 25 25 27 26 25 25 26 27 27 27
43 41 40 39 38 38 36 38 39 40 41 41 41 40 39 38 41 40 40 40 41 36 33 34 34 33 31 34 34 28 32 30 28 27 26 24 27 33 29 27 28 29 28 28 28

GFSSW_sfc_dewp_048.txt.gz
Dewpoint
56 56 56 57 57 58 59 60 60 61 61 61 61 60 60 60 59 52 37 46 50 57 54 34 34 36 33 36 37 33 24 19 18 19 21 22 20 22 24 21 25 27 29 31 32
55 56 56 57 57 58 59 59 60 61 61 61 61 60 60 59 49 39 51 57 59 59 37 31 31 32 27 33 34 29 27 21 18 18 20 22 20 21 20 20 24 28 31 32 33
56 56 56 56 57 57 58 59 60 61 61 61 61 60 60 56 44 38 57 58 60 53 35 32 30 28 30 30 29 29 24 17 19 27 26 23 23 23 21 21 26 25 29 31 32
57 57 57 57 57 57 58 59 60 61 61 61 61 60 58 48 33 44 58 58 60 42 35 35 29 28 28 28 30 26 25 19 30 31 28 26 26 24 23 28 29 30 30 30 31
58 58 58 57 57 57 57 58 59 60 61 61 60 59 49 39 38 47 56 56 45 39 35 32 26 29 26 25 29 26 24 25 28 31 28 29 27 24 25 28 29 29 30 29 30
58 58 57 57 57 57 57 58 58 60 60 59 59 58 46 36 45 43 42 46 38 35 35 33 27 27 26 25 27 28 27 24 28 29 29 27 25 25 24 28 28 28 29 29 29
58 58 57 57 58 58 58 57 58 60 59 59 59 49 42 39 45 40 38 39 39 36 36 35 31 32 30 30 29 29 25 24 24 25 26 27 25 24 25 27 27 27 28 29 29
57 57 57 57 57 58 58 58 58 59 58 58 58 49 39 43 47 43 38 37 37 36 37 37 36 36 34 33 27 25 25 25 26 26 27 26 24 26 26 26 26 26 27 28 28
56 57 57 57 57 57 58 58 57 59 57 57 50 47 39 47 42 43 39 36 36 36 37 32 39 33 33 25 25 26 23 24 26 26 25 25 26 25 25 25 25 26 27 27 27
56 56 57 57 57 57 57 57 57 58 54 49 46 42 38 35 42 43 40 37 37 37 35 35 32 29 28 24 23 24 24 24 24 23 24 25 24 24 24 24 25 26 27 27 27
56 56 57 57 57 57 56 54 50 49 49 41 40 39 36 35 41 40 38 35 35 34 30 32 27 26 25 26 25 24 24 24 24 24 24 24 24 24 24 24 24 25 27 27 26
56 56 57 57 57 58 55 49 48 47 41 46 43 42 36 35 33 37 37 32 33 30 31 31 28 29 29 28 27 25 24 24 25 24 24 24 24 25 25 24 25 26 27 27 26
57 56 57 57 57 56 51 48 49 46 42 34 43 43 40 34 33 35 35 33 31 31 30 29 29 30 28 28 27 26 25 24 25 25 25 23 24 25 27 27 26 27 28 27 25
57 56 56 57 54 52 49 51 52 49 34 25 37 42 39 36 34 36 35 33 30 29 30 29 30 28 28 26 27 25 27 26 26 25 22 25 23 26 27 27 27 28 28 26 25
57 57 57 56 50 50 48 52 53 51 23 31 35 42 38 35 34 35 35 32 29 26 29 28 27 28 28 27 28 26 29 27 27 25 27 25 25 26 28 26 27 28 28 26 25
57 57 57 56 54 52 53 55 53 36 22 33 37 37 35 36 33 32 33 33 33 30 28 28 31 29 28 29 28 29 28 28 28 27 25 26 26 26 27 26 27 29 28 26 26
55 57 56 56 50 54 54 52 37 31 26 27 34 36 35 35 32 31 29 28 27 26 26 27 28 31 30 28 29 28 27 27 25 25 25 25 26 26 28 26 27 29 29 26 26
55 55 56 56 56 55 54 45 30 34 29 34 34 35 34 35 33 31 29 27 29 28 27 25 26 29 30 29 29 28 28 29 22 24 25 23 23 25 29 28 28 29 28 25 25
54 54 54 56 57 55 49 35 33 34 33 31 33 33 33 34 32 31 29 28 29 28 25 26 27 30 30 30 31 29 27 30 28 21 22 26 25 26 28 28 27 28 27 25 25
51 51 51 56 56 52 45 37 37 37 35 32 28 32 32 32 31 30 30 31 31 30 30 32 30 30 26 28 29 29 30 27 27 20 21 26 26 24 27 26 27 28 26 25 25
50 46 51 55 55 48 39 38 38 37 36 33 30 28 29 33 31 30 31 32 32 31 31 33 33 27 27 26 27 27 26 27 27 29 24 23 24 25 26 27 26 27 27 25 25
47 41 51 55 45 44 40 41 40 37 38 37 35 32 28 28 31 31 30 32 33 33 30 33 34 28 26 27 28 29 28 27 26 25 26 26 25 22 27 28 27 28 27 26 25
42 44 50 53 40 41 42 41 41 37 37 38 36 36 34 31 28 32 32 33 34 34 33 34 33 29 31 28 28 26 27 28 27 29 26 24 25 27 27 28 27 28 28 26 26
42 37 44 46 44 41 40 38 39 42 39 38 38 38 36 34 32 33 32 33 35 34 39 37 36 32 29 29 30 26 26 27 28 26 26 26 27 26 26 27 28 29 28 27 26
41 38 41 37 39 40 40 39 37 38 41 42 38 37 38 36 36 35 36 32 32 37 36 36 33 34 33 33 32 28 28 27 25 26 26 27 27 28 28 26 27 28 29 28 26
38 37 41 39 38 38 39 37 36 39 39 39 40 40 38 37 38 35 37 34 33 31 33 37 34 35 33 34 35 34 34 28 27 26 26 27 26 29 29 26 26 27 28 28 27
43 42 39 37 37 36 36 37 37 39 40 41 40 40 39 39 40 40 40 40 39 33 33 36 35 32 31 33 34 32 35 35 33 27 26 25 27 29 27 24 26 27 28 28 28